Find Starlink 6037

NORAD ID: 56461 Int'l Des: 2023-064 Owner: SPXS Country: US Constellation: starlink operational
LEOCIRCULAR

現在のビュー

3D地球を読み込み中...

About Starlink 6037

Starlink 6037 (NORAD 56461) is a starlink constellation satellite (v1.5) launched May 10, 2023 by SPXS of US. It operates in LEO, CIRCULAR orbit with a mass of 305.00 kg.

次回通過

Passes for default location (London). Set your location on the main map for personalized predictions.

高度履歴

Loading altitude history...

軌道要素

1 56461U 23064P 26263.58664785 .00000340 00000-0 36285-4 0 9990
2 56461 70.0008 12.8942 0003215 269.9192 90.1599 14.98331242184445
Epoch: Sep 20, 2026 • Age: 11 hours

現在のステータス

高度 574.2 km
遠地点 / 近地点 N/A
速度 7.57 km/s
衛星直下点 11.56°N, 4.23°W
打ち上げ日 May 10, 2023
運用期間 3.3 years
タイプ internet

技術仕様

分類 Payload
質量 305.00 kg
乾燥質量 290.00 kg
長さ 0.20 m
スパン 9.00 m
形状 ? Box + pan
製造者 SPXS
バスタイプ Starlink
フェーズステータス In Orbit
所有者/国 SPXS/US

Most Searched